Location: Penton Mewsey
(51.2167°N, 1.5167°W)
Time: 00:39:42
(UTC+00:00)

CZ-2C R/B - Pass Details

Date: 30 March 2020
Orbit: 705 x 907 km, 98.1° (Epoch: 30 May)

Event Time Altitude Azimuth Distance (km) Brightness Sun altitude
Rises 19:22:11 0° 159° (SSE) 3,240 5.9 -7.8°
Reaches altitude 10° 19:24:32 10° 158° (SSE) 2,289 5.1 -8.2°
Maximum altitude 19:29:32 77° 73° (ENE) 760 2.9 -8.9°
Drops below altitude 10° 19:34:22 10° 348° (NNW) 2,213 5.8 -9.6°
Sets 19:36:37 0° 347° (NNW) 3,125 6.6 -10.0°
